Cloud_Cover
5 5 66 100 100 100 100 100 100 100 89 99 100 71 99 88 42 20 15 48 0 2 0 0 0 0 0 0 5 4 8 5 57 100 83 97 99 100 84 80 100 99 98 95 86 100 36 7 5
6 41 60 98 100 100 100 100 100 99 32 53 100 99 90 100 24 7 20 46 0 0 61 1 0 1 1 5 7 6 7 94 100 100 100 100 100 100 100 100 100 100 88 100 100 100 66 75 5
46 100 96 100 100 100 100 100 100 63 50 94 74 55 49 95 45 5 2 11 35 0 3 0 1 0 0 5 5 10 11 6 43 96 100 100 100 82 100 97 68 10 68 100 61 100 100 84 5
100 81 100 100 100 90 91 14 7 72 69 69 93 100 92 88 41 5 46 0 79 4 8 0 1 0 0 5 7 0 5 5 3 0 99 100 99 67 100 17 39 5 37 55 92 15 6 5 43
100 100 100 100 100 100 19 46 88 96 40 99 97 94 72 70 100 5 14 0 43 69 0 0 0 0 6 5 3 4 4 2 0 0 0 46 99 43 100 94 6 98 100 81 100 100 21 5 5
100 100 100 100 100 100 39 48 70 91 73 77 56 76 82 48 67 4 1 13 0 0 0 0 0 4 2 5 0 5 0 0 0 0 0 0 0 7 88 8 12 99 64 5 24 100 99 100 12
100 100 100 100 100 100 94 37 37 35 69 36 100 44 80 20 61 29 11 100 0 3 0 0 0 0 0 0 0 0 0 0 0 0 0 0 0 68 12 6 13 8 53 88 100 100 95 100 99
100 100 100 100 100 99 14 87 86 43 10 55 48 30 100 24 60 35 15 0 0 6 2 0 0 0 0 0 0 0 0 0 0 2 0 5 5 94 84 4 3 5 58 100 100 82 100 100 96
100 100 100 100 100 78 63 42 49 7 85 100 25 13 72 100 72 40 20 0 4 80 34 5 0 0 0 0 0 0 0 5 47 5 13 100 8 6 0 16 75 24 8 100 100 100 100 100 100
100 100 100 100 100 51 51 98 83 86 67 97 88 90 56 100 89 92 22 0 5 37 15 0 0 44 30 0 15 82 59 29 100 92 16 4 5 28 49 100 100 100 100 100 54 98 40 89 100
100 100 80 100 100 100 95 100 100 100 91 100 100 89 98 100 100 28 74 7 2 1 17 0 11 100 5 89 22 17 59 100 97 42 8 1 94 99 100 100 100 100 100 100 27 18 95 62 0
5 41 63 90 98 100 100 100 100 100 100 100 87 49 93 100 100 21 39 65 0 1 23 29 1 85 31 91 10 74 25 98 100 100 86 64 99 100 98 100 100 100 100 100 100 100 81 72 68
97 3 46 22 86 100 87 100 100 100 100 100 98 84 66 95 87 5 6 81 25 0 8 6 4 87 87 84 99 10 100 17 65 52 57 0 22 44 83 3 94 100 82 100 100 100 49 5 22
80 80 25 100 89 99 100 100 64 58 96 89 100 92 92 90 97 5 34 5 6 0 0 0 21 0 16 75 24 100 74 13 99 14 40 23 21 2 100 77 89 85 84 96 25 3 5 80 4
3 16 79 76 70 85 100 100 100 96 45 70 100 48 98 100 93 4 5 5 5 1 0 0 0 0 0 0 0 1 28 98 2 0 0 23 17 95 85 26 4 7 0 0 0 0 26 2 96
21 23 95 65 55 100 100 100 100 100 59 96 100 100 100 100 100 22 0 5 4 0 0 0 8 90 0 0 0 100 0 86 3 0 25 0 35 29 24 1 0 65 77 83 4 4 57 100 5
31 88 14 100 100 100 100 100 100 100 99 100 100 100 100 100 96 94 4 2 5 0 0 0 98 0 0 0 71 28 5 71 40 5 0 0 14 11 62 0 0 0 0 0 0 0 0 2 18
98 100 42 77 100 100 100 100 100 100 100 100 100 100 100 100 35 10 0 0 0 1 0 0 96 20 92 0 20 0 78 48 89 12 0 0 0 53 0 2 18 0 0 0 0 0 0 90 100
100 42 81 95 100 100 100 100 100 100 100 100 100 100 100 100 74 4 0 0 3 0 4 0 31 2 0 0 0 0 0 0 95 0 0 0 0 0 100 45 28 0 0 0 0 0 0 0 0
100 100 95 77 100 100 100 100 100 100 100 100 100 100 100 100 98 12 1 5 0 1 0 0 32 0 0 0 76 3 96 7 82 0 0 0 2 11 0 0 13 17 0 0 0 0 0 0 0
99 85 66 89 87 100 100 100 100 100 100 99 100 99 100 100 99 100 85 5 4 3 0 0 0 0 0 0 22 27 100 57 2 0 0 0 20 6 0 0 0 93 0 0 0 0 0 0 0
7 62 37 100 79 98 100 42 100 100 100 100 100 100 28 100 100 8 20 5 50 80 64 0 0 0 0 0 0 99 100 1 0 1 0 0 0 39 8 74 0 0 0 0 0 0 0 0 0
5 100 29 37 91 37 96 94 98 100 100 100 100 86 49 98 99 43 99 4 71 5 23 17 0 0 0 0 0 14 14 3 0 0 0 0 0 16 99 21 0 97 0 0 0 0 0 0 0
5 91 100 21 47 83 51 54 100 85 56 88 100 100 100 100 100 98 76 5 5 5 9 13 0 0 0 0 0 0 0 72 20 1 0 0 0 0 0 0 3 9 10 0 0 0 0 0 0
4 68 75 100 78 35 45 81 98 46 100 100 86 100 100 100 100 100 92 40 5 5 2 42 0 0 0 0 0 0 0 40 50 0 0 0 0 0 0 0 0 15 0 0 0 0 0 0 0
10 49 64 100 4 15 1 34 85 5 94 100 61 100 100 100 98 100 78 61 8 2 0 77 2 0 0 0 0 0 0 0 0 0 0 0 0 0 0 0 0 0 0 0 0 0 0 0 0
13 100 22 85 32 96 63 40 0 98 35 90 56 99 6 100 100 100 73 15 5 0 0 0 0 0 0 0 0 0 0 0 0 0 0 0 0 0 0 0 0 0 0 0 0 0 0 0 0
15 81 40 58 48 99 18 99 100 100 59 0 5 96 98 57 58 100 100 53 95 1 0 0 0 0 0 0 0 0 0 0 0 0 0 0 0 0 0 0 0 0 0 0 0 0 0 0 0
0 92 100 68 93 11 2 58 99 100 68 98 29 85 27 5 58 82 74 59 90 5 0 0 0 0 0 0 0 0 0 0 0 0 0 0 0 0 0 0 0 0 0 0 0 0 0 0 0
4 31 81 84 5 20 33 32 100 66 100 100 93 17 24 5 1 3 8 100 52 0 0 0 0 0 0 0 0 0 0 0 0 0 0 0 0 0 0 0 0 0 0 0 0 0 0 0 0